Temp
12 15 14 13 13 11 10 9 9 10 9 10 10 10 11 10 11 12 12 10 9 11 13 12 11 11 12 13 14 13 12 13 15 14 14 14 13 12 12 12 11 11 10 9 8 8 7 7 7 7 6 6 6 6 6 6 6 6 6 6 6 6 7 7 7 7 8 8 7 7 7 7 7 7 6 6 6 6 6 6 5 5 5 5 4 4
13 15 14 12 11 9 9 9 8 8 8 10 11 11 12 11 11 12 11 9 9 10 12 11 11 12 12 13 13 12 13 15 15 14 14 13 13 12 12 12 10 10 9 8 8 7 7 7 6 6 6 6 6 6 6 6 6 6 6 6 6 6 6 6 6 6 6 7 7 7 7 7 7 7 6 6 6 6 6 5 5 5 5 5 4 4
15 15 14 11 9 8 8 9 9 10 9 10 11 12 13 12 11 12 11 9 8 9 12 11 10 13 12 12 14 14 14 15 13 12 12 12 12 12 10 9 8 7 7 7 7 6 6 6 6 6 5 5 5 5 5 5 5 6 6 6 6 6 6 6 6 5 5 5 5 6 6 6 6 6 6 5 5 5 5 5 5 5 5 4 4 4
16 15 12 9 9 10 11 10 10 11 11 11 11 12 13 11 11 12 12 10 8 8 10 10 10 12 13 14 16 14 12 12 11 10 10 8 8 8 7 6 5 5 5 6 5 5 5 5 5 5 5 5 5 5 5 5 5 5 5 6 6 6 6 6 6 6 5 5 5 5 5 5 5 5 5 5 5 5 5 5 5 5 5 5 4 4
15 13 9 9 12 12 13 12 10 12 13 12 11 12 12 11 10 11 11 9 9 8 8 10 14 15 15 15 16 14 11 10 10 8 7 6 5 5 5 5 5 4 4 4 4 4 4 4 4 4 4 4 4 4 4 4 4 4 5 5 5 6 6 6 6 6 6 6 5 5 5 5 5 5 5 5 6 6 6 6 5 5 5 5 4 4
15 11 9 12 13 12 13 13 10 11 13 13 12 12 11 10 9 9 8 9 12 13 10 10 15 16 16 15 15 13 10 9 8 6 5 5 4 5 4 4 4 4 4 4 4 4 4 4 4 4 4 4 4 4 4 4 4 4 4 4 4 5 5 6 6 6 6 6 5 5 5 4 4 4 4 5 5 5 5 5 5 4 4 4 4 4
14 10 10 13 13 13 13 12 11 9 12 15 13 11 10 9 9 9 9 11 14 15 10 10 13 14 15 15 13 11 8 7 6 5 4 4 4 4 4 4 4 4 4 4 4 4 4 4 4 4 4 4 4 4 4 4 4 4 4 4 4 4 4 5 5 5 5 5 5 4 4 4 3 3 3 4 4 4 4 4 4 4 3 3 3 3
13 13 13 13 13 14 13 12 11 9 11 15 13 10 9 9 9 8 9 11 11 12 11 11 12 13 14 15 12 9 8 5 4 4 4 4 3 4 4 4 4 4 4 3 4 4 3 3 3 3 4 4 4 4 4 4 4 4 4 4 4 4 4 4 4 4 4 4 4 4 4 3 3 3 3 4 4 4 4 3 3 3 3 3 3 3
12 14 13 13 13 13 13 12 11 9 12 15 12 9 8 8 8 7 9 11 8 10 14 13 11 12 14 14 10 8 6 4 4 4 3 3 3 3 3 3 4 4 4 3 3 3 3 3 3 3 4 4 4 4 3 3 3 3 3 3 3 3 3 3 3 4 4 4 4 4 3 3 3 3 3 3 3 3 3 3 3 3 2 2 2 2
11 12 10 11 13 14 13 12 9 10 12 13 10 9 7 6 7 7 8 11 9 11 15 13 11 12 13 11 7 6 5 3 3 3 3 3 3 3 3 3 4 3 3 4 3 3 3 3 4 4 4 3 3 3 3 3 3 3 3 3 3 3 3 3 3 3 3 3 3 3 3 3 3 2 2 2 2 2 3 2 3 2 2 2 2 2
10 9 8 10 12 12 12 10 8 9 11 11 10 11 11 8 7 7 8 10 12 14 14 12 11 11 11 8 4 4 5 3 3 3 3 3 3 3 3 3 3 3 3 4 3 4 4 4 4 4 3 3 3 3 3 3 3 3 3 3 3 3 3 3 3 3 3 3 3 3 3 3 2 2 2 2 2 2 2 2 2 2 2 2 2 2
11 12 11 10 10 9 11 11 9 7 8 10 11 12 13 12 10 11 11 11 13 14 13 12 10 10 11 8 3 3 4 3 3 3 3 3 3 3 3 3 3 3 3 3 3 4 4 4 4 4 3 3 3 3 3 3 3 3 3 3 3 3 3 3 3 3 3 3 3 3 3 3 2 2 2 1 1 1 1 1 2 2 2 2 2 1
14 14 12 10 9 9 11 13 12 10 10 11 12 12 12 12 11 12 12 12 12 13 12 11 9 10 10 7 4 3 3 3 3 3 3 3 3 3 3 3 3 3 3 3 3 4 4 4 4 4 3 3 3 3 3 3 3 3 3 3 3 3 3 3 3 3 3 2 2 2 2 2 2 2 2 2 1 1 1 1 1 1 1 1 1 1
15 15 13 13 12 10 11 13 12 13 12 11 11 12 12 11 10 10 10 10 11 12 11 10 9 10 9 6 4 4 4 4 4 3 4 3 3 3 3 3 3 3 3 3 3 4 4 4 4 4 3 3 3 3 3 3 2 2 2 2 2 3 3 3 3 3 2 2 2 2 2 2 2 2 2 2 2 2 2 1 1 1 1 1 1 1
14 15 14 14 13 11 12 11 11 11 11 10 9 11 12 11 10 9 10 11 10 10 10 9 10 12 11 6 4 4 4 4 4 4 4 4 3 3 3 3 3 3 3 3 3 3 4 4 4 4 3 3 3 3 2 2 2 2 2 2 2 2 2 2 2 2 2 2 2 2 2 2 2 2 2 2 2 2 2 1 1 1 1 1 1 1
13 15 14 12 10 11 12 10 8 10 12 10 8 11 12 11 10 10 10 10 9 8 8 9 11 10 8 5 3 4 4 3 4 3 3 3 3 3 3 3 3 3 3 3 3 3 3 4 4 3 3 3 2 2 2 2 2 2 2 2 2 2 2 2 2 2 2 2 2 2 2 2 2 2 2 2 2 2 2 1 1 1 1 1 1 1
13 15 14 12 11 11 10 9 8 10 13 11 9 12 11 8 9 10 9 8 7 8 8 9 10 8 5 4 3 3 3 3 3 3 3 3 2 2 2 2 2 3 3 3 3 3 3 3 4 3 3 2 2 2 2 2 2 2 1 1 1 2 2 2 2 2 2 2 2 2 2 2 1 1 1 1 1 2 2 1 1 1 1 1 1 1
11 13 13 12 13 12 6 7 9 8 10 12 12 12 9 8 9 9 8 8 8 8 8 9 10 9 8 7 3 2 3 2 2 3 2 2 2 2 2 2 2 3 3 3 3 3 3 3 3 3 2 2 2 1 1 2 1 1 1 1 1 1 1 1 1 1 1 1 1 1 1 1 1 1 1 1 1 1 1 1 1 2 2 2 2 2
8 12 13 10 12 12 7 8 12 9 7 10 11 10 9 9 10 8 7 8 7 7 7 9 9 9 8 6 2 2 2 2 2 2 2 2 2 2 2 2 3 3 3 3 3 3 3 3 3 2 2 1 1 1 1 1 1 1 1 0 1 1 1 1 1 1 1 1 1 1 1 1 1 1 1 1 1 1 1 1 1 1 1 2 2 2
7 11 13 11 11 12 11 12 14 12 9 9 10 10 10 10 9 8 8 7 7 6 6 7 8 8 6 4 2 2 2 2 1 2 2 2 2 2 2 3 3 3 3 3 3 3 2 3 2 2 1 1 1 1 1 1 1 0 0 0 0 0 0 0 0 0 0 0 0 0 0 1 0 0 0 0 0 0 0 1 1 1 1 1 1 1
8 10 12 13 12 12 13 13 12 12 11 10 11 9 8 8 8 8 7 7 6 6 6 5 6 7 5 2 3 3 2 2 1 1 2 2 2 2 2 3 3 2 3 3 3 2 2 2 2 1 1 1 0 0 1 1 0 0 0 0 0 0 0 0 0 0 0 0 0 0 0 0 0 0 0 -0 0 0 0 0 0 1 1 1 1 1
9 9 9 11 12 12 14 13 11 11 10 9 9 7 6 6 7 6 6 7 6 5 5 4 4 6 5 3 4 3 2 2 2 2 2 2 2 2 2 2 2 2 2 2 2 2 2 2 1 1 1 0 0 0 0 0 0 -0 -0 -0 -0 -0 -0 -0 -0 -0 -0 -0 -0 -0 -0 -0 -0 -0 -0 -0 -0 -0 -0 -0 -0 0 0 0 1 1
7 7 8 10 11 12 13 10 7 8 8 6 5 4 5 5 5 5 5 5 4 4 5 4 4 5 4 3 3 3 2 2 2 2 2 2 2 2 2 2 2 2 2 2 1 1 1 1 1 0 -0 -0 -0 -0 -0 -0 -0 -0 -0 -0 -0 -0 -0 -0 -0 -0 -0 -0 -0 -0 -0 -0 -0 -0 -1 -0 -1 -1 -0 -0 -0 -0 -0 -0 0 1
7 7 9 11 11 11 12 9 7 7 8 7 4 2 3 3 3 4 4 3 3 3 4 2 2 5 4 3 3 4 3 2 2 2 2 1 1 1 1 1 1 1 1 1 1 0 0 0 -0 -0 -1 -1 -1 -0 -0 -0 -0 -0 -1 -1 -1 -1 -1 -1 -1 -1 -1 -1 -1 -1 -1 -1 -1 -1 -1 -1 -1 -1 -1 -1 -1 -0 -0 -0 -0 0
8 9 10 11 10 10 11 10 9 9 9 7 3 1 2 2 2 2 2 2 2 3 3 1 1 4 5 5 5 4 3 2 2 2 2 1 1 1 1 1 1 1 0 0 0 0 0 -0 -1 -1 -1 -1 -1 -1 -0 -0 -0 -1 -1 -1 -1 -1 -1 -1 -1 -1 -1 -1 -1 -1 -1 -1 -1 -1 -1 -1 -1 -1 -1 -1 -1 -1 -1 -1 -1 -0
8 9 9 10 10 8 9 9 9 9 8 6 3 1 1 2 2 2 2 1 2 2 2 1 1 3 5 5 4 4 2 2 2 2 1 1 1 0 0 0 0 0 -0 -0 -0 -0 -0 -1 -1 -1 -1 -1 -1 -0 -0 -0 -1 -1 -1 -1 -1 -1 -1 -1 -1 -1 -1 -1 -1 -1 -1 -1 -1 -1 -1 -1 -1 -1 -1 -1 -1 -1 -1 -1 -1 -1
7 7 8 10 10 9 9 10 9 8 7 6 4 1 1 1 1 2 1 1 1 1 1 2 2 2 3 3 3 3 2 1 1 1 1 0 0 -0 -0 -0 -0 -0 -0 -0 -0 -0 -1 -1 -1 -1 -1 -0 -0 -0 -0 -1 -1 -1 -1 -1 -1 -1 -1 -1 -1 -1 -1 -1 -1 -1 -1 -1 -1 -1 -1 -1 -1 -1 -1 -1 -1 -1 -1 -1 -1 -1
7 8 8 8 10 10 10 9 8 7 5 5 3 1 1 1 0 1 1 1 1 0 0 2 2 1 1 2 2 2 1 1 0 -0 -0 -0 -0 -1 -1 -1 -1 -1 -1 -1 -0 -1 -1 -1 -1 -1 -1 -0 -0 -0 -1 -1 -1 -1 -1 -1 -1 -1 -1 -1 -1 -1 -1 -1 -1 -2 -2 -2 -1 -2 -1 -1 -2 -2 -1 -1 -1 -1 -1 -1 -1 -1
8 9 7 6 8 8 7 7 6 5 4 3 1 1 1 1 1 1 0 1 1 0 0 2 1 1 1 2 1 1 0 -0 -0 -0 -0 -1 -1 -1 -1 -1 -1 -1 -1 -1 -1 -1 -1 -1 -1 -1 -1 -1 -1 -1 -1 -1 -1 -1 -1 -1 -2 -2 -2 -2 -1 -2 -2 -2 -2 -2 -2 -2 -2 -2 -2 -2 -2 -2 -2 -1 -1 -1 -1 -1 -2 -2
6 9 6 4 5 6 6 6 6 5 4 2 0 1 1 1 1 1 1 1 1 1 1 1 1 1 2 2 1 0 0 -0 -1 -1 -1 -1 -1 -1 -1 -1 -1 -1 -1 -1 -1 -1 -1 -1 -1 -1 -1 -1 -1 -1 -1 -1 -1 -2 -2 -2 -2 -2 -2 -2 -2 -2 -2 -2 -2 -2 -2 -2 -2 -2 -2 -2 -2 -2 -2 -1 -1 -1 -2 -2 -2 -2
6 8 5 3 5 7 7 7 6 5 4 2 1 1 1 1 1 1 1 1 1 1 1 1 0 1 1 1 0 -0 -0 -1 -1 -1 -1 -1 -1 -2 -2 -2 -1 -1 -1 -1 -1 -1 -1 -1 -1 -1 -1 -1 -1 -2 -2 -2 -2 -2 -2 -2 -2 -2 -2 -2 -2 -2 -2 -2 -2 -2 -2 -2 -2 -2 -2 -2 -2 -2 -2 -1 -1 -2 -2 -2 -2 -2
6 7 5 4 5 7 7 6 5 4 2 1 1 0 0 1 1 0 1 1 1 0 0 -0 -1 -1 0 0 -1 -1 -1 -1 -1 -2 -2 -2 -2 -2 -2 -2 -1 -1 -1 -2 -2 -1 -1 -1 -1 -1 -1 -2 -2 -2 -2 -2 -3 -3 -3 -2 -2 -2 -2 -2 -2 -2 -2 -2 -2 -2 -2 -2 -2 -2 -2 -2 -2 -2 -2 -2 -2 -2 -2 -2 -2 -2
3 5 6 4 5 7 7 5 5 4 3 3 2 0 0 1 1 1 1 1 1 1 -0 -1 -1 -1 -0 -1 -1 -1 -2 -2 -2 -2 -2 -2 -2 -2 -1 -1 -1 -1 -2 -2 -2 -2 -1 -1 -2 -2 -2 -2 -3 -3 -3 -3 -3 -3 -3 -3 -2 -2 -2 -2 -2 -2 -2 -2 -2 -2 -2 -2 -2 -2 -2 -2 -2 -2 -2 -2 -2 -2 -2 -2 -2 -2
1 4 5 3 4 6 5 4 5 5 5 4 3 1 1 1 1 0 0 1 1 1 0 -0 -1 -1 -1 -1 -2 -2 -2 -2 -2 -2 -2 -2 -2 -1 -1 -1 -1 -2 -2 -2 -2 -2 -2 -2 -2 -2 -3 -3 -3 -3 -3 -3 -3 -3 -3 -3 -2 -2 -3 -3 -3 -3 -3 -3 -3 -3 -2 -2 -2 -2 -2 -2 -2 -2 -2 -2 -2 -2 -2 -2 -2 -2
3 5 3 1 2 4 4 3 4 5 5 3 1 1 2 2 1 1 0 1 1 1 0 -1 -1 -1 -1 -1 -2 -2 -2 -2 -2 -2 -1 -1 -1 -1 -1 -1 -2 -2 -2 -2 -2 -2 -2 -2 -3 -3 -3 -3 -3 -3 -3 -3 -3 -3 -3 -3 -3 -3 -3 -3 -3 -3 -3 -3 -3 -3 -3 -2 -2 -2 -2 -2 -2 -2 -2 -2 -2 -2 -2 -2 -2 -2
4 4 3 2 2 3 3 2 2 4 4 2 1 2 2 1 1 0 -1 0 1 0 -1 -1 -1 -1 -1 -2 -2 -2 -2 -2 -2 -1 -1 -1 -1 -1 -2 -2 -2 -2 -2 -2 -2 -2 -2 -3 -3 -3 -3 -3 -3 -3 -3 -3 -3 -3 -3 -3 -3 -3 -3 -3 -3 -3 -3 -3 -3 -3 -3 -2 -2 -2 -2 -2 -2 -2 -2 -2 -3 -2 -2 -2 -2 -2
3 3 3 3 2 2 2 1 2 3 3 1 1 2 1 1 0 -1 -2 -1 0 0 -1 -2 -2 -2 -2 -2 -2 -2 -2 -2 -2 -2 -1 -1 -1 -1 -2 -2 -2 -2 -2 -2 -2 -2 -3 -3 -3 -3 -3 -4 -4 -3 -3 -3 -3 -3 -4 -3 -3 -3 -3 -3 -3 -3 -3 -3 -3 -3 -3 -3 -3 -3 -3 -3 -3 -3 -3 -3 -3 -2 -2 -2 -2 -2
2 3 4 4 2 1 1 1 1 1 2 1 1 2 2 1 0 -0 -2 -2 -0 0 -1 -1 -2 -2 -2 -2 -2 -2 -2 -3 -3 -2 -1 -1 -1 -2 -2 -2 -2 -2 -2 -2 -2 -2 -3 -3 -3 -4 -4 -4 -4 -3 -3 -4 -4 -4 -4 -4 -3 -3 -3 -3 -3 -3 -3 -3 -3 -3 -3 -3 -3 -3 -3 -3 -3 -3 -3 -3 -3 -2 -2 -2 -2 -2
2 1 2 3 1 1 0 0 -0 1 1 1 0 1 1 0 0 0 -2 -3 -1 -0 -1 -2 -2 -2 -2 -3 -3 -3 -3 -4 -4 -3 -2 -2 -2 -2 -2 -2 -2 -2 -2 -3 -3 -3 -3 -3 -4 -4 -4 -4 -4 -4 -4 -4 -4 -4 -4 -4 -4 -3 -3 -3 -3 -3 -3 -3 -3 -3 -3 -3 -3 -3 -3 -3 -3 -3 -3 -3 -3 -2 -2 -2 -2 -2
2 0 0 1 1 0 0 0 -0 1 2 2 1 1 1 1 0 -1 -4 -4 -1 -1 -1 -2 -2 -3 -2 -3 -3 -3 -4 -5 -4 -3 -2 -2 -2 -2 -2 -2 -2 -3 -3 -3 -3 -3 -4 -4 -4 -4 -4 -4 -4 -5 -5 -4 -5 -4 -4 -4 -4 -4 -4 -3 -3 -3 -3 -3 -3 -3 -3 -3 -3 -3 -3 -3 -3 -3 -3 -3 -3 -2 -2 -2 -2 -2
1 -1 -1 0 0 -0 -0 -0 0 1 2 2 1 1 0 0 -1 -4 -5 -3 -1 -1 -1 -2 -2 -3 -3 -3 -3 -4 -4 -4 -3 -3 -3 -2 -3 -2 -2 -3 -3 -3 -3 -3 -3 -4 -4 -5 -5 -5 -5 -5 -5 -5 -5 -5 -5 -5 -5 -5 -5 -4 -4 -4 -4 -4 -3 -3 -4 -3 -3 -3 -3 -3 -3 -3 -3 -3 -3 -3 -3 -2 -2 -2 -3 -3
0 -0 -1 -1 -0 -0 0 -0 -0 1 2 2 1 1 1 -1 -3 -4 -2 -1 -1 -1 -2 -2 -2 -3 -3 -3 -4 -4 -4 -3 -3 -3 -3 -3 -3 -3 -3 -3 -4 -4 -4 -4 -5 -6 -6 -6 -6 -6 -6 -6 -6 -6 -6 -6 -6 -6 -5 -5 -5 -5 -5 -4 -4 -4 -4 -4 -4 -3 -3 -3 -3 -3 -3 -3 -3 -3 -3 -3 -3 -2 -3 -3 -4 -5
0 0 -0 -1 -0 -0 0 -0 -1 0 2 2 1 0 -0 -2 -3 -2 -1 -1 -1 -2 -2 -2 -3 -3 -3 -4 -4 -4 -4 -4 -3 -3 -3 -3 -3 -3 -4 -4 -4 -4 -5 -6 -6 -7 -7 -7 -7 -7 -7 -7 -6 -7 -7 -7 -6 -6 -6 -5 -5 -5 -5 -5 -4 -4 -4 -4 -4 -4 -4 -3 -3 -3 -3 -3 -3 -3 -3 -3 -3 -2 -3 -4 -5 -6
0 -0 -1 -1 -1 -1 -1 -1 -0 1 2 2 -0 -1 -1 -1 -1 -1 -2 -2 -2 -2 -3 -3 -3 -3 -4 -4 -4 -4 -4 -4 -4 -4 -4 -4 -4 -4 -4 -4 -5 -5 -6 -7 -7 -7 -8 -8 -8 -8 -8 -7 -7 -7 -7 -7 -7 -6 -6 -6 -6 -5 -5 -5 -5 -5 -5 -4 -4 -4 -4 -3 -3 -3 -3 -3 -3 -3 -3 -3 -3 -3 -4 -5 -6 -7
1 1 -0 -1 -0 -1 -1 -0 1 1 1 1 0 -0 -1 -1 -1 -1 -2 -2 -3 -3 -3 -3 -4 -4 -4 -4 -4 -4 -4 -4 -4 -4 -4 -4 -4 -5 -5 -5 -6 -7 -8 -8 -8 -8 -8 -8 -8 -8 -8 -8 -8 -8 -8 -8 -7 -7 -7 -6 -6 -6 -6 -5 -5 -5 -5 -4 -4 -4 -4 -3 -3 -3 -3 -3 -3 -3 -3 -3 -3 -4 -6 -6 -7 -8
1 1 1 -0 -0 -0 -0 1 1 0 0 0 0 -0 -1 -1 -1 -2 -2 -3 -3 -3 -3 -4 -4 -4 -4 -4 -4 -5 -5 -4 -4 -4 -5 -5 -5 -5 -6 -7 -7 -8 -8 -9 -9 -9 -9 -9 -9 -9 -9 -9 -9 -9 -9 -9 -8 -8 -7 -7 -7 -6 -6 -6 -6 -5 -5 -4 -4 -4 -4 -4 -3 -3 -3 -3 -3 -3 -3 -3 -3 -5 -6 -7 -8 -8
0 0 -0 -1 -1 -1 -1 0 0 -0 -0 -0 -1 -0 -1 -1 -1 -2 -3 -3 -3 -3 -4 -4 -4 -4 -4 -5 -5 -5 -5 -5 -5 -5 -5 -5 -6 -6 -7 -8 -8 -8 -9 -9 -9 -9 -9 -9 -9 -9 -10 -10 -10 -10 -9 -9 -9 -8 -8 -7 -7 -6 -6 -6 -5 -5 -5 -4 -4 -4 -4 -3 -3 -3 -3 -3 -3 -3 -3 -3 -4 -6 -7 -7 -8 -9
0 0 -1 -1 -1 -2 -1 -0 -0 -1 -0 -1 -1 -1 -2 -2 -2 -2 -3 -3 -3 -4 -4 -4 -4 -4 -5 -5 -5 -5 -5 -5 -6 -6 -6 -6 -7 -7 -8 -8 -9 -9 -9 -10 -10 -9 -9 -10 -10 -10 -11 -11 -10 -10 -10 -10 -9 -9 -8 -7 -7 -6 -6 -6 -5 -5 -5 -5 -5 -4 -4 -3 -3 -3 -3 -3 -3 -3 -3 -3 -4 -6 -7 -8 -8 -9
0 0 -1 -1 -2 -2 -1 -0 -1 -2 -1 -1 -1 -1 -2 -2 -3 -3 -3 -3 -4 -4 -4 -4 -4 -4 -5 -5 -5 -5 -6 -6 -6 -6 -6 -7 -8 -8 -8 -9 -9 -10 -10 -10 -10 -10 -10 -11 -11 -11 -11 -11 -11 -11 -10 -10 -10 -9 -8 -8 -7 -7 -7 -6 -6 -5 -5 -5 -4 -4 -4 -3 -3 -4 -4 -3 -3 -3 -3 -3 -5 -6 -7 -8 -8 -8
-0 -1 -1 -2 -3 -3 -2 -1 -2 -3 -3 -2 -2 -2 -2 -2 -3 -3 -3 -4 -4 -4 -5 -5 -5 -5 -5 -5 -5 -6 -6 -6 -6 -6 -7 -8 -8 -9 -9 -10 -10 -11 -11 -10 -10 -10 -11 -11 -11 -12 -12 -11 -11 -11 -11 -11 -10 -9 -8 -8 -8 -8 -7 -7 -6 -6 -5 -5 -4 -4 -4 -4 -3 -4 -3 -3 -3 -3 -3 -3 -5 -6 -7 -8 -8 -8
-0 -1 -1 -2 -3 -3 -2 -1 -2 -2 -3 -2 -2 -2 -3 -3 -3 -4 -4 -4 -5 -5 -5 -5 -6 -6 -6 -6 -6 -6 -7 -7 -7 -7 -8 -8 -9 -10 -10 -10 -11 -11 -11 -11 -11 -11 -12 -12 -12 -12 -12 -12 -12 -12 -12 -11 -10 -9 -9 -9 -9 -8 -8 -7 -7 -6 -5 -5 -4 -4 -4 -4 -4 -4 -3 -3 -3 -3 -3 -4 -5 -6 -7 -8 -8 -7
Height
818 815 823 829 832 837 840 845 844 843 845 841 842 840 836 837 828 817 816 821 825 814 802 806 808 804 798 789 784 786 787 783 780 780 779 778 780 781 781 780 780 780 781 783 781 779 777 774 772 770 767 766 765 764 763 762 761 760 758 756 754 753 751 750 749 748 747 746 746 745 744 743 743 744 744 744 744 744 744 745 746 746 747 747 748 749
819 820 830 836 839 844 845 847 847 846 848 843 839 834 829 833 827 815 819 825 825 819 808 809 808 795 792 790 785 788 785 780 780 781 781 782 784 785 785 785 786 787 787 786 784 781 779 777 774 771 770 769 768 768 767 766 765 762 760 758 757 756 754 752 752 751 750 749 747 746 745 743 743 743 742 742 742 742 742 742 743 743 743 744 744 745
820 825 833 840 845 848 848 847 844 842 843 840 836 832 825 828 825 814 818 824 827 824 810 811 812 793 790 792 784 784 783 780 785 787 787 789 790 791 793 796 795 793 791 789 788 786 784 782 779 777 777 776 775 774 772 770 767 765 763 762 760 758 756 754 753 752 751 750 749 747 746 745 743 743 742 741 741 741 741 740 740 740 740 741 740 741
824 829 837 844 843 839 838 840 840 836 835 837 834 830 826 829 830 817 813 820 827 829 819 814 811 795 789 787 780 784 789 790 793 795 798 803 803 805 807 807 804 801 798 797 795 793 791 788 786 785 784 782 781 778 776 774 771 769 768 766 764 761 758 756 754 753 751 750 749 747 746 745 744 743 742 741 740 740 739 739 739 738 738 737 736 737
829 835 844 844 837 833 832 834 839 833 828 834 833 829 827 830 836 829 823 827 824 825 827 814 797 787 786 784 780 784 794 799 802 804 807 812 814 813 811 811 810 808 806 804 802 799 796 793 791 790 789 786 784 781 779 778 776 774 772 770 767 764 761 758 755 753 751 749 748 746 745 744 743 742 741 740 739 739 738 737 736 736 735 734 733 734
831 841 845 837 833 835 831 832 840 838 829 827 828 829 829 832 838 839 836 830 810 805 820 816 796 786 784 785 787 790 800 808 811 815 817 819 819 816 815 815 814 812 810 808 806 803 800 798 796 793 790 788 785 784 783 781 779 777 774 771 768 766 762 759 757 754 752 749 748 746 744 744 743 741 740 740 739 737 736 735 733 732 732 731 730 730
834 842 843 835 834 834 831 833 839 844 835 821 824 831 835 838 837 837 835 823 805 803 818 820 807 798 788 784 793 801 811 819 820 823 825 824 824 822 821 820 817 815 813 810 808 805 803 800 798 795 792 791 789 787 785 782 780 776 774 771 768 766 763 760 758 755 752 750 748 747 746 745 744 741 739 738 738 736 734 732 730 729 728 727 726 726
835 835 836 836 834 831 830 833 836 844 836 819 825 834 836 837 832 836 834 822 820 817 815 817 813 807 795 788 800 808 815 826 828 830 831 829 828 826 824 822 820 818 815 812 810 807 805 803 800 798 795 793 791 788 785 782 779 776 774 771 768 766 763 760 758 755 753 750 748 747 745 744 743 741 738 736 736 734 732 730 728 726 724 723 722 722
840 833 835 836 834 831 831 834 839 844 834 819 827 836 839 839 835 840 833 824 837 825 802 808 814 810 798 792 806 813 820 833 835 836 837 833 831 828 826 824 821 820 816 814 812 808 807 804 802 800 796 794 791 787 785 782 780 777 774 771 769 766 763 760 758 755 753 751 748 746 744 742 740 739 736 734 733 731 729 727 725 723 721 720 719 718
841 839 844 839 834 833 831 836 842 841 832 826 832 835 839 845 843 844 835 825 832 819 799 807 815 810 801 806 823 824 829 843 842 840 840 835 833 829 827 826 822 820 817 814 812 810 807 805 802 799 795 792 789 786 784 781 778 775 772 770 767 764 762 759 757 754 752 750 747 744 742 739 737 735 733 731 729 728 726 724 722 720 718 716 715 715
845 846 848 843 838 839 837 840 844 843 837 832 831 825 824 836 841 840 839 830 819 807 803 810 817 815 810 825 846 839 838 850 847 844 842 835 833 830 827 826 823 821 818 814 811 808 805 803 800 797 794 790 788 785 782 779 776 773 771 768 764 762 760 757 755 752 750 748 746 743 740 737 735 732 731 728 726 724 723 721 719 717 715 713 712 711
842 839 841 844 845 846 840 836 841 847 844 835 830 823 815 821 827 823 822 822 815 807 806 812 822 824 814 826 849 848 844 850 847 844 841 836 833 830 828 826 824 822 818 815 811 807 804 800 796 794 791 789 787 784 781 779 776 773 770 767 762 759 757 755 753 750 748 746 744 742 739 736 733 731 728 726 724 722 721 719 716 715 713 710 708 707
834 833 839 844 846 848 839 831 834 837 837 833 831 830 826 827 830 824 820 823 821 811 808 817 826 822 815 827 844 848 847 846 844 842 839 836 834 830 828 826 824 822 818 815 811 808 804 800 798 795 791 789 786 784 782 780 777 774 770 767 762 758 756 754 752 749 746 744 742 740 737 734 732 729 727 725 722 720 718 717 715 713 711 708 706 704
835 833 838 837 839 845 841 836 836 833 834 838 836 834 835 841 847 844 838 836 829 814 810 824 829 814 811 832 846 844 844 843 841 840 837 836 834 830 828 825 823 820 817 814 811 807 805 802 799 796 792 790 788 785 783 780 777 774 770 766 762 757 754 752 750 747 744 742 739 737 735 732 730 727 725 723 720 717 715 714 713 711 709 707 704 702
849 840 837 835 839 842 842 844 846 842 841 847 849 843 838 844 855 855 842 834 830 825 823 825 819 801 799 826 843 840 840 840 838 838 837 834 833 830 826 824 822 819 816 813 810 807 805 802 799 795 792 790 788 786 783 779 776 772 769 765 761 756 752 750 747 744 742 739 736 734 732 730 728 725 723 720 718 715 712 710 709 708 706 704 702 699
857 846 840 841 848 845 842 847 851 846 840 848 855 845 840 845 849 849 842 840 845 846 838 823 809 808 819 835 842 838 837 839 837 837 835 833 831 827 824 822 820 818 815 812 810 806 803 800 797 794 791 790 788 785 782 778 774 770 767 763 759 756 751 748 745 741 739 736 734 731 729 727 725 722 720 717 714 712 710 707 705 704 702 700 698 696
857 845 839 844 846 844 848 850 850 846 835 842 849 839 844 854 850 847 846 850 858 853 842 826 812 819 834 838 839 839 837 836 834 833 831 829 826 823 821 821 819 816 814 811 808 805 801 799 795 792 791 789 787 784 781 777 773 769 766 761 757 753 749 746 742 738 736 733 731 728 726 724 722 719 717 714 711 709 706 704 702 700 698 696 694 692
870 854 844 847 840 840 857 854 847 852 846 839 840 839 847 852 849 854 855 852 854 849 838 825 813 812 815 823 837 842 836 835 833 830 829 826 823 822 820 819 817 814 812 808 805 802 800 797 794 791 789 787 785 783 779 775 771 768 764 759 755 750 746 743 739 736 733 730 728 725 722 720 718 716 713 711 708 706 703 700 698 696 694 692 690 688
883 861 844 853 847 842 854 850 840 849 853 846 843 845 849 848 847 856 859 854 855 857 844 826 815 811 811 823 841 845 839 839 837 832 831 829 827 826 822 818 816 812 808 805 801 799 797 795 792 789 787 785 783 780 777 772 769 765 761 756 752 748 745 740 736 732 729 726 724 721 719 716 714 712 710 707 705 703 700 697 694 692 690 688 686 684
885 868 849 850 850 844 843 842 836 839 848 850 848 848 849 851 852 854 858 857 857 859 852 838 824 816 825 840 846 846 843 842 840 836 835 834 831 828 823 818 814 810 807 803 799 797 795 791 788 786 783 781 779 777 773 769 765 761 757 753 749 745 741 737 733 729 726 723 721 718 715 712 710 708 706 704 702 699 697 694 691 689 686 684 682 680
882 874 859 846 846 846 839 840 842 842 847 848 846 854 859 857 856 858 861 860 860 860 858 857 838 819 832 846 842 842 843 840 841 839 836 834 830 826 822 818 814 810 806 802 798 795 792 788 785 781 780 778 777 774 770 766 762 758 754 750 746 742 738 733 729 726 723 720 717 715 711 709 706 704 702 700 698 695 692 690 687 685 683 680 678 676
880 878 873 857 850 845 836 842 848 849 855 857 858 870 876 873 868 868 865 859 863 865 862 867 852 826 831 841 837 839 841 838 839 838 834 831 826 822 819 815 812 808 804 800 797 794 790 786 781 778 777 775 772 769 764 761 757 754 751 747 743 739 735 730 726 723 720 717 714 711 708 705 702 699 698 695 693 691 688 686 683 681 679 677 674 672
886 886 881 865 855 848 841 851 861 860 863 869 877 883 883 882 882 881 877 871 872 869 861 868 859 834 834 842 837 837 838 837 838 836 831 827 822 819 816 812 810 806 802 798 794 791 788 783 779 777 775 771 767 764 759 755 752 749 746 742 738 735 730 727 724 720 717 714 710 707 704 701 698 695 693 691 688 686 684 681 679 677 675 672 670 668
888 887 878 859 853 850 843 850 863 864 860 865 882 892 890 891 892 888 885 885 884 874 870 880 866 835 832 840 837 835 836 837 836 833 829 825 820 818 814 811 809 804 800 795 791 788 783 779 777 775 771 767 763 758 753 750 747 743 740 736 733 729 725 723 720 716 713 709 706 703 700 697 694 692 689 687 684 681 679 677 675 672 670 668 666 664
881 880 876 865 863 859 847 848 856 856 857 868 889 900 897 897 897 892 891 895 890 875 877 890 872 837 828 835 834 832 835 836 835 831 829 825 821 818 814 811 807 801 797 792 787 783 779 777 775 772 769 764 758 753 748 744 741 737 734 731 727 724 720 718 715 711 708 705 701 699 696 693 690 688 685 683 680 677 675 672 670 668 666 664 662 660
883 883 880 873 877 882 874 867 862 858 862 874 891 901 899 897 897 893 896 901 893 880 880 885 869 841 832 836 834 833 836 837 834 830 828 825 822 818 814 810 804 799 794 789 784 780 777 775 773 769 765 759 753 749 744 740 736 733 729 726 722 719 715 712 709 706 703 700 697 694 691 689 687 684 681 679 676 673 670 668 665 663 661 659 657 655
891 890 883 873 875 880 878 870 865 868 873 875 887 900 900 900 900 897 899 901 896 890 882 873 863 851 842 839 836 835 838 837 834 831 827 824 820 815 811 807 802 797 792 787 782 778 775 773 769 764 759 754 749 745 740 737 733 729 725 721 718 714 711 707 704 701 698 695 693 689 687 685 682 680 677 674 671 669 666 664 661 659 656 654 653 651
889 882 884 883 874 871 873 870 870 878 883 883 892 901 900 901 902 901 902 899 895 895 881 863 861 861 850 841 838 838 840 839 836 832 828 823 819 814 809 804 799 794 788 783 779 776 774 769 764 759 753 749 745 740 737 734 729 725 721 717 714 711 707 704 700 697 694 691 688 685 683 680 678 675 672 669 667 664 661 659 656 654 652 650 648 646
888 878 888 894 882 878 881 879 878 884 888 894 900 900 899 901 901 900 902 896 893 896 883 864 863 863 851 842 841 842 842 841 838 831 826 821 815 809 805 800 795 789 783 779 777 775 772 766 760 754 749 745 740 736 732 729 724 721 717 713 710 707 703 700 696 693 690 686 683 681 678 676 673 670 667 664 661 659 657 654 652 650 647 645 643 642
891 878 892 903 893 885 882 879 881 884 887 897 903 900 898 899 899 899 898 893 890 888 878 868 865 859 849 846 846 844 842 841 836 828 822 817 810 805 800 794 788 783 779 777 775 772 768 763 757 751 746 741 737 733 729 725 720 717 713 709 706 702 699 696 692 689 686 682 679 676 673 670 668 665 662 659 657 655 652 649 647 645 643 641 639 637
889 881 896 905 893 879 874 877 881 882 886 895 900 901 899 895 896 896 894 891 888 882 873 869 865 855 848 849 849 844 842 839 833 826 820 814 807 801 796 789 783 778 775 774 771 767 763 758 752 747 743 738 735 732 727 722 718 714 710 706 702 698 695 692 688 685 681 678 675 672 669 666 663 660 657 655 653 650 648 645 643 640 638 636 635 633
894 892 896 901 893 876 870 877 882 885 893 897 899 903 900 894 894 894 892 890 887 880 873 868 864 856 850 850 848 841 838 836 830 824 818 810 803 797 791 785 779 775 774 771 766 761 757 752 748 743 739 736 733 729 724 719 715 711 706 703 699 695 691 688 685 681 677 674 671 668 666 663 660 657 654 651 649 646 643 641 638 636 634 632 630 628
911 901 894 902 897 877 874 882 881 881 885 885 892 902 899 895 893 888 887 888 885 882 878 871 865 858 850 848 845 838 834 833 828 821 815 809 800 792 785 781 777 775 772 768 762 757 751 747 744 741 737 733 729 725 721 716 712 707 703 699 695 692 688 685 682 678 674 671 668 665 663 660 656 653 650 647 645 642 640 637 635 633 630 627 625 623
921 907 902 913 904 884 886 890 876 870 874 879 890 898 896 896 894 887 885 886 881 879 878 872 865 859 852 849 846 839 832 829 826 819 813 808 801 791 784 780 778 775 769 764 759 754 749 744 741 738 734 730 725 721 717 713 708 704 700 695 691 688 685 681 678 674 670 667 664 661 658 655 652 649 646 644 641 638 636 634 631 629 626 623 620 617
913 906 909 920 913 896 896 899 887 876 879 890 896 895 893 894 893 887 881 879 879 876 874 873 868 862 856 850 845 840 831 823 818 813 807 802 797 792 787 783 779 774 767 761 755 751 747 743 739 734 730 726 722 718 713 709 704 700 696 692 688 684 681 677 673 670 666 663 659 656 654 651 648 644 642 640 637 635 632 630 627 624 621 618 615 613
908 909 911 915 914 905 904 913 909 889 884 895 898 894 894 893 892 890 880 873 877 877 875 874 869 861 857 850 842 837 828 816 808 803 800 798 793 792 790 785 780 773 765 760 754 749 746 741 737 733 728 723 720 715 710 706 701 697 692 689 685 681 677 674 670 667 663 659 656 653 650 648 644 640 638 635 633 631 628 625 623 619 616 614 610 608
911 912 910 910 916 917 917 920 913 895 889 897 898 895 897 896 896 898 888 874 873 877 876 874 867 859 854 847 839 832 823 811 798 789 790 793 791 790 788 782 777 771 764 759 755 749 745 740 736 732 726 721 717 712 708 703 698 694 690 685 682 678 674 671 668 664 661 657 654 651 647 645 641 637 634 632 629 627 624 621 618 615 612 609 605 602
915 914 911 911 918 924 924 921 916 906 898 899 900 897 897 897 896 898 894 880 872 874 875 871 864 857 850 843 836 828 821 813 797 782 780 785 786 784 780 775 771 767 761 757 752 745 741 737 733 729 724 718 713 709 705 700 695 691 686 682 679 675 672 669 665 662 659 655 651 648 644 641 638 634 631 629 625 622 619 616 613 610 607 604 600 597
918 921 918 918 923 927 927 926 925 915 901 899 902 897 894 895 892 893 896 886 872 869 871 868 864 858 850 843 836 828 824 819 803 784 779 780 779 779 775 769 765 762 759 756 751 743 737 733 729 725 720 713 708 704 701 696 692 688 683 679 676 672 669 665 661 659 656 652 648 645 641 638 635 632 629 625 621 618 614 612 608 605 602 599 595 591
920 927 926 925 928 930 928 926 924 914 901 897 898 897 895 892 889 894 900 888 871 868 868 866 864 859 850 844 838 831 828 823 808 791 784 780 777 775 773 768 762 760 756 751 746 741 736 732 728 722 716 710 705 701 697 692 689 685 680 677 674 670 666 662 658 655 652 648 645 641 638 635 631 628 625 621 617 614 611 608 604 600 597 593 590 586
927 934 934 931 931 931 929 926 918 908 900 896 895 896 894 888 890 903 904 887 874 871 868 865 864 859 852 847 841 834 827 820 810 798 788 781 774 768 767 765 762 759 755 748 744 741 736 731 727 720 714 710 704 699 695 692 687 683 678 675 671 667 663 658 655 652 648 645 642 638 634 632 628 625 621 617 614 611 607 605 601 597 593 589 585 583
933 937 937 935 934 931 928 926 919 905 895 895 895 893 893 897 903 905 894 883 880 877 870 865 862 858 854 848 842 834 824 815 807 798 788 782 775 766 762 761 757 753 750 746 744 741 735 729 724 719 714 709 704 700 696 691 686 681 676 671 667 663 659 654 651 648 645 641 638 635 631 628 624 621 617 613 611 608 604 601 598 593 589 586 583 581
936 937 938 938 935 931 926 927 925 908 892 893 898 896 898 906 907 897 885 883 883 879 873 867 860 857 854 848 840 832 823 813 805 796 788 780 774 768 763 759 754 749 746 744 740 736 733 727 723 719 714 708 704 700 695 690 685 679 674 669 664 660 655 651 648 645 642 638 635 631 628 624 621 618 614 611 608 605 601 598 594 590 586 584 581 578
939 941 945 943 938 937 935 931 923 908 896 899 905 904 902 902 899 893 887 883 879 876 875 869 860 855 852 846 838 829 821 812 803 795 788 779 772 768 762 757 754 750 746 742 737 733 730 726 722 718 712 707 704 700 695 690 684 678 673 667 662 658 653 649 645 642 638 635 632 628 625 621 618 614 611 608 605 602 599 594 590 587 584 582 580 577
937 936 941 940 935 935 933 923 913 906 903 905 906 903 900 897 895 893 888 882 877 875 873 869 861 853 847 843 835 826 818 811 802 795 789 781 773 768 763 758 756 752 747 742 737 733 730 725 720 715 709 706 704 700 695 690 683 678 672 666 661 656 651 646 643 639 635 632 629 626 622 619 615 612 609 606 603 600 596 591 587 585 583 581 579 577
934 931 935 936 930 927 921 912 910 910 907 905 904 900 897 894 892 891 887 881 876 871 868 866 860 851 843 838 832 823 816 810 803 795 789 783 774 769 765 761 757 753 748 742 736 732 728 724 719 714 708 705 703 698 692 688 683 677 670 664 659 654 648 644 640 636 632 629 626 623 620 616 613 610 607 604 601 597 594 589 586 584 581 580 579 577
934 932 935 934 932 930 918 907 909 911 907 904 901 897 895 892 889 888 884 878 872 867 863 860 856 849 843 836 830 822 814 809 804 795 788 782 775 769 766 762 757 753 749 744 738 732 727 723 718 713 709 705 701 696 691 686 681 675 669 663 658 652 647 642 638 633 630 627 623 621 617 614 611 608 605 602 598 595 592 588 585 583 581 579 578 576
935 934 936 934 933 933 922 909 906 906 904 903 899 894 892 888 884 882 879 874 869 863 859 854 850 846 840 834 829 823 813 808 804 797 789 782 777 772 768 763 758 754 749 745 740 733 729 725 720 716 711 706 699 695 690 684 678 673 668 662 657 652 646 641 636 632 628 625 621 618 615 613 610 606 603 600 596 593 590 586 583 582 580 579 577 576
936 935 936 933 932 929 920 911 905 899 894 894 894 891 889 887 882 878 875 871 866 860 855 852 847 843 839 833 829 824 815 808 803 797 790 784 780 775 770 764 759 756 750 744 739 735 731 727 722 717 712 706 700 695 690 683 677 672 667 662 657 652 647 641 636 631 627 623 620 616 613 611 608 605 601 597 594 591 588 585 583 581 579 578 577 576
937 936 934 934 934 929 922 916 913 907 898 893 893 892 889 886 884 878 873 869 865 860 855 851 847 843 838 832 828 824 817 808 802 796 790 786 783 779 773 766 760 755 750 745 739 736 733 728 723 719 712 706 700 695 688 682 677 671 666 662 657 652 647 641 636 631 626 622 618 614 611 609 606 603 600 596 592 589 586 584 583 581 579 578 577 575
937 936 934 935 934 929 921 918 919 916 907 898 895 894 890 887 884 880 875 871 866 861 858 853 847 843 837 830 826 823 817 809 802 795 790 786 784 781 776 770 763 755 748 744 739 735 731 727 723 718 712 705 700 694 688 682 677 671 667 662 656 651 646 641 636 630 625 621 617 612 609 607 604 601 598 594 591 588 585 583 582 581 579 578 576 575
Wind_Speed
3 6 6 3 4 6 5 3 3 3 2 3 2 1 5 4 6 8 6 5 4 5 5 3 6 10 10 12 10 8 7 6 6 7 6 6 7 7 7 8 9 8 8 14 23 28 32 36 38 40 42 44 45 46 48 47 45 44 44 44 42 37 29 21 18 16 15 15 16 17 19 22 24 25 26 27 28 29 31 32 33 34 36 36 37 38
5 7 5 5 6 5 4 2 1 1 2 1 1 3 5 3 7 10 4 4 5 4 5 4 9 13 10 9 10 6 6 5 5 5 7 7 7 7 8 10 10 8 8 15 23 29 35 39 42 42 43 44 43 44 46 45 45 46 46 45 43 42 39 31 22 18 18 17 17 17 19 20 20 20 22 23 24 25 26 28 30 32 34 35 37 38
7 5 6 6 3 1 2 3 3 2 4 2 0 1 5 3 6 9 3 1 4 2 5 5 7 12 10 8 9 6 4 5 5 4 5 7 8 9 10 12 13 13 13 15 19 26 33 36 39 40 40 40 39 41 43 44 45 45 46 45 43 42 41 39 33 25 20 19 18 19 20 20 20 20 20 20 20 21 23 25 27 29 30 33 35 37
5 3 4 3 2 3 3 5 6 4 3 2 1 2 5 4 3 5 3 5 6 0 3 7 5 8 8 6 7 5 3 5 7 7 7 8 10 11 12 13 15 17 16 16 17 20 27 32 34 35 35 36 37 38 40 41 42 41 41 42 41 41 40 40 39 34 28 23 20 19 20 20 21 21 21 21 22 22 24 27 27 28 30 32 34 36
2 3 1 4 7 6 3 5 7 6 5 2 2 2 5 6 2 4 6 9 8 1 1 6 5 4 5 6 7 6 4 7 11 15 16 14 14 13 14 16 16 16 15 15 16 16 21 26 29 31 33 34 35 35 37 37 36 36 37 38 38 39 39 39 38 37 34 31 27 24 23 23 22 23 23 22 24 25 25 27 29 30 31 32 33 35
1 3 1 4 7 7 5 4 5 4 5 4 3 3 5 7 6 6 7 7 6 4 3 5 5 5 5 5 6 6 8 13 15 19 18 16 15 15 15 15 14 14 13 13 14 15 18 23 26 29 32 33 33 33 35 35 35 35 36 36 37 36 37 38 38 36 35 34 31 28 26 24 23 24 24 24 26 27 27 28 29 30 30 31 33 34
1 3 3 4 4 7 7 4 2 2 4 6 2 4 3 5 6 5 4 3 3 4 4 4 4 4 6 5 6 5 9 15 16 17 16 14 14 13 12 12 12 13 13 12 13 15 17 21 24 26 29 30 30 31 33 35 36 37 36 37 36 36 35 36 37 36 35 34 32 29 25 23 22 23 25 27 28 28 29 30 30 30 29 29 31 32
1 6 7 6 4 6 7 4 2 3 3 4 2 1 5 6 5 2 2 1 1 3 4 4 3 2 5 4 5 7 10 14 16 15 14 12 12 12 11 12 12 12 12 12 13 13 16 20 22 24 26 28 28 30 33 35 36 36 36 36 36 35 34 34 35 34 34 33 32 31 27 24 23 23 26 28 28 28 29 30 30 29 28 28 29 31
1 5 5 4 5 5 4 4 3 3 1 6 4 5 5 3 1 3 4 1 1 2 4 5 2 1 6 4 5 8 10 12 12 12 12 11 11 11 11 12 12 11 11 11 12 13 16 20 22 24 26 29 31 32 33 34 35 35 35 35 35 35 34 34 33 32 32 31 30 30 29 27 27 27 28 29 29 29 29 29 29 28 27 26 27 29
1 0 2 2 4 4 4 5 3 5 1 7 6 5 2 3 2 3 4 2 2 4 3 6 2 1 5 5 6 7 7 8 8 7 8 9 10 10 10 11 11 11 11 11 12 14 18 20 22 24 27 30 32 33 35 36 37 36 35 35 36 35 35 35 34 33 32 31 30 29 28 27 29 30 31 31 30 30 29 29 30 29 27 26 25 27
2 1 2 2 1 2 4 5 2 5 4 6 6 5 3 4 3 3 2 3 4 4 5 7 1 2 2 3 3 4 3 3 4 4 6 8 9 10 10 10 11 11 11 11 12 16 22 25 25 26 27 30 32 34 36 38 39 39 36 36 36 36 36 36 35 34 33 32 30 29 28 27 27 28 29 30 31 31 31 30 31 31 29 27 26 25
3 2 1 1 1 0 3 5 1 1 4 4 5 5 5 5 4 4 5 4 4 5 7 5 1 1 3 3 2 1 3 5 3 4 7 9 10 10 10 10 10 10 11 12 12 15 21 24 27 28 27 29 31 33 36 38 39 38 37 36 37 37 36 36 35 34 33 32 30 30 29 28 27 27 27 27 29 30 31 31 32 32 31 29 27 25
3 2 3 3 1 2 3 5 5 4 5 6 5 6 6 5 5 5 5 3 0 6 5 2 1 2 4 3 4 5 4 4 2 3 6 8 9 9 10 9 9 9 11 12 12 13 15 18 24 26 25 27 29 31 34 36 36 36 36 36 36 36 35 35 34 34 33 32 31 30 29 28 28 28 27 26 27 28 29 30 32 32 31 31 29 26
4 5 6 5 2 1 4 4 5 5 5 6 4 4 5 3 5 5 5 4 4 8 4 1 2 4 2 2 5 6 5 3 1 3 4 7 7 9 11 10 11 12 13 13 13 13 14 17 24 24 22 23 25 29 33 34 34 34 35 36 35 35 35 33 32 33 33 33 32 31 29 29 28 28 28 28 27 28 28 28 29 31 31 31 31 30
5 5 5 4 3 3 4 2 1 2 2 2 1 3 4 2 1 3 4 4 7 9 6 3 2 4 3 1 7 6 4 2 2 4 4 6 7 8 10 10 12 13 13 13 14 15 16 22 26 23 20 21 24 31 35 34 32 32 34 36 36 35 35 34 32 31 32 33 33 32 31 30 28 27 28 28 29 28 28 29 29 30 31 30 31 31
3 4 6 3 2 1 3 1 2 2 2 2 2 4 3 1 3 2 4 5 4 5 5 4 3 3 0 1 4 4 2 0 3 5 5 8 10 10 10 11 12 13 13 13 14 14 17 25 28 23 18 20 27 35 38 35 33 33 35 37 36 35 34 33 32 31 31 32 33 33 32 31 29 28 28 29 30 30 29 29 29 31 32 31 31 31
2 5 6 5 3 0 2 2 1 2 2 1 2 3 3 3 6 2 4 2 1 3 4 3 4 2 1 1 2 1 3 5 8 10 10 11 15 16 14 13 13 14 14 15 14 13 16 23 27 21 17 22 31 37 38 36 34 34 37 37 37 36 35 33 32 31 31 31 32 33 33 32 30 30 30 31 32 32 31 31 31 31 32 32 32 31
1 4 6 4 5 4 2 1 2 2 1 2 2 4 2 1 4 3 2 3 3 4 4 4 9 8 3 3 3 6 10 12 13 14 15 16 20 19 16 16 17 17 16 15 14 12 15 21 23 17 18 27 35 37 38 36 34 36 39 38 37 36 36 35 34 33 32 31 31 32 32 32 31 31 32 32 33 34 34 33 33 32 32 33 33 32
3 2 7 1 3 7 2 3 4 4 1 2 1 2 2 2 3 2 1 4 5 5 5 5 11 10 4 3 5 9 10 12 14 15 15 17 18 15 15 17 19 19 17 15 13 10 14 20 19 15 20 31 36 37 37 34 33 37 40 40 37 36 36 36 35 34 33 32 32 31 32 33 33 32 33 33 33 34 34 35 35 34 33 33 33 32
2 1 5 4 4 7 4 4 4 6 5 4 2 2 2 2 4 2 2 1 2 5 5 5 8 7 1 2 2 4 6 9 12 12 12 13 13 12 14 16 16 17 16 14 13 11 15 22 21 16 23 31 35 37 36 33 32 36 40 40 39 38 37 37 36 35 34 34 33 33 34 34 34 33 33 33 33 33 33 35 35 35 35 34 33 33
1 2 3 7 6 5 4 2 2 3 4 5 4 4 5 2 1 2 1 1 0 4 4 5 9 7 1 2 1 3 4 7 8 9 11 12 14 13 15 15 14 15 15 13 12 12 17 25 24 19 26 32 34 36 35 32 31 35 38 39 38 38 37 37 37 36 35 34 34 34 34 35 35 34 33 33 33 33 34 35 35 35 35 34 34 33
1 1 2 6 6 4 5 4 1 0 1 3 3 3 3 2 2 3 5 2 1 2 4 6 10 8 0 2 2 3 4 7 8 11 14 15 16 15 15 15 14 15 14 13 13 13 16 23 23 20 26 32 34 36 36 33 30 32 36 36 35 34 34 35 36 36 36 35 34 34 34 35 35 34 34 33 33 33 33 34 35 35 34 34 34 34
0 2 0 4 4 5 10 4 4 4 6 8 4 3 2 2 5 1 6 5 2 4 4 4 8 7 1 2 3 3 4 8 11 15 17 16 16 16 16 17 17 17 16 15 14 14 17 22 20 19 27 33 36 37 37 33 30 33 36 35 33 32 32 34 35 35 35 35 35 35 35 35 35 35 35 34 33 33 33 34 34 34 34 34 35 35
1 3 2 5 5 6 9 3 5 4 6 7 5 5 3 2 1 4 4 2 3 4 2 2 7 7 1 1 5 6 6 10 13 16 17 16 16 16 18 19 18 18 18 17 15 16 20 21 17 19 28 33 36 37 35 32 32 35 37 35 32 32 32 33 33 33 33 33 34 35 35 35 36 35 35 35 35 35 35 35 35 34 33 33 33 34
2 1 2 4 7 8 8 6 4 2 3 4 3 3 3 3 2 1 1 3 2 3 6 5 8 9 5 7 13 13 10 13 16 17 17 16 16 16 17 17 17 18 18 18 18 18 18 14 14 21 29 32 33 34 33 32 33 35 36 35 33 33 33 33 32 32 32 32 33 33 33 34 35 35 35 36 36 36 36 36 35 34 33 32 32 33
1 0 3 4 5 7 7 7 8 7 5 1 3 4 4 5 6 3 2 2 2 7 10 6 8 13 14 16 21 17 12 15 19 19 18 16 16 17 16 16 17 17 17 19 20 18 14 12 18 26 30 31 33 33 32 32 33 36 36 35 35 35 35 34 33 32 31 31 31 31 32 33 33 33 34 35 35 36 36 36 35 34 33 32 31 32
2 0 2 4 3 6 6 9 9 6 6 5 3 6 4 3 5 3 1 2 5 9 10 7 11 18 20 22 22 16 14 17 19 20 19 17 17 18 17 17 18 16 16 19 18 14 13 17 23 27 29 32 33 33 33 33 34 36 36 35 36 37 36 36 34 32 32 32 31 31 31 31 32 32 33 34 34 35 35 36 35 33 33 32 31 32
4 2 2 4 6 8 7 11 12 6 4 5 3 5 4 2 4 4 2 5 8 8 8 12 17 21 22 24 21 16 16 18 18 20 19 17 18 18 17 19 20 19 18 17 14 13 17 22 22 23 28 32 33 33 34 34 35 35 35 35 36 36 37 36 34 33 32 31 31 31 31 32 32 33 33 33 34 34 34 34 33 32 32 33 31 31
4 2 2 3 6 9 9 12 10 4 1 1 2 4 5 4 5 4 4 8 8 7 12 18 22 23 22 20 17 16 17 17 18 19 18 18 19 18 18 20 21 21 19 15 13 16 21 22 20 20 26 31 33 34 33 34 35 35 34 35 36 36 36 35 33 32 32 31 31 31 32 33 33 32 32 33 33 33 33 32 31 31 32 32 31 30
3 2 3 2 6 10 9 8 5 3 3 2 3 4 4 4 4 4 6 9 10 12 16 20 24 24 18 15 15 16 17 16 17 19 19 21 21 20 22 22 21 20 16 13 16 19 20 21 20 21 24 28 30 32 32 32 33 34 35 36 37 37 36 35 33 32 32 31 32 33 34 33 32 31 31 31 31 32 31 31 31 31 30 30 30 29
2 3 1 2 5 9 5 2 3 2 4 3 2 5 7 8 7 7 7 8 11 15 18 21 23 20 12 11 16 18 17 17 18 20 21 20 21 23 23 23 22 18 15 16 19 20 19 20 20 20 21 25 29 31 32 33 34 35 36 37 36 37 36 35 33 32 31 32 33 34 33 31 31 31 31 31 31 31 31 31 30 29 29 29 29 29
4 4 3 4 5 9 6 8 10 5 4 4 3 6 9 11 12 10 7 8 12 17 22 23 18 13 11 13 18 20 19 19 20 22 20 19 22 24 23 22 20 15 16 21 22 21 21 21 20 19 22 27 31 32 32 34 34 35 35 35 36 37 36 34 33 32 32 33 33 33 31 30 30 30 31 31 31 31 32 31 29 29 29 30 30 29
3 3 4 3 4 8 9 13 14 6 4 3 3 2 7 13 16 14 10 10 14 14 16 17 13 13 17 18 20 22 21 20 20 20 20 20 24 26 23 19 16 17 21 24 23 23 22 20 20 23 28 32 33 33 35 36 34 34 35 36 36 36 35 33 32 31 32 32 32 31 30 29 29 29 30 30 31 31 30 29 28 29 30 31 31 30
3 3 2 1 2 6 10 14 14 8 6 5 1 3 7 13 16 18 16 13 15 14 13 13 13 18 22 21 20 22 22 21 20 20 21 19 19 21 21 17 18 22 25 23 22 22 20 21 26 31 35 36 36 37 39 39 36 37 38 38 37 36 34 32 32 31 30 30 30 29 29 28 28 28 29 30 30 30 29 28 29 30 30 30 29 29
3 3 2 1 0 4 5 10 12 10 6 4 1 1 7 11 13 21 22 16 17 19 16 14 17 21 22 20 19 21 23 23 23 22 22 19 15 14 16 19 24 28 27 24 23 22 21 24 29 33 37 39 38 39 39 38 38 39 38 37 37 36 34 32 31 31 30 30 29 29 29 29 28 28 28 28 29 29 29 29 29 30 29 28 28 28
2 2 1 0 0 3 5 6 7 9 6 3 2 2 6 11 14 18 21 19 18 15 12 16 21 21 21 22 21 20 23 25 22 18 16 14 12 11 15 22 27 28 25 23 23 24 27 30 32 34 38 39 39 39 39 38 39 38 36 36 35 33 32 31 30 30 30 29 29 30 30 29 29 29 28 28 27 27 28 29 29 29 29 28 28 29
3 2 2 2 1 2 5 5 5 9 6 3 4 4 6 11 13 13 17 20 14 8 10 17 21 21 22 23 22 23 26 25 21 17 12 9 10 14 20 24 25 24 24 26 30 33 34 37 38 38 39 39 39 39 39 40 40 37 35 33 31 31 30 29 29 29 29 29 28 29 30 30 30 30 29 28 27 27 28 29 28 28 28 28 29 29
4 3 3 3 2 1 3 6 5 8 7 1 2 7 8 10 13 12 14 14 8 8 14 18 21 24 24 23 24 25 24 21 19 18 15 13 15 19 21 22 25 27 27 30 36 38 38 38 39 40 42 40 37 39 43 44 42 38 34 30 28 29 29 28 28 29 29 29 30 30 30 30 30 29 28 28 28 29 30 29 28 29 29 29 29 28
6 4 5 4 3 2 3 6 5 6 5 1 2 9 13 13 13 12 11 9 9 14 18 18 20 25 25 24 25 25 20 15 15 18 20 21 21 21 20 22 26 28 31 36 38 37 38 39 38 41 41 36 36 43 47 44 40 38 33 29 27 28 28 28 28 28 29 31 32 31 30 30 30 29 28 28 29 30 30 29 30 31 31 30 29 30
6 5 5 5 3 4 5 5 3 3 4 3 4 11 15 14 13 11 10 9 13 19 19 17 21 25 26 25 24 20 17 15 16 22 27 26 23 21 22 24 24 25 33 40 41 39 39 38 38 40 39 36 40 47 45 40 37 35 32 30 29 28 28 29 30 29 30 32 33 32 31 30 30 30 29 30 31 30 30 30 30 31 31 32 31 28
3 2 3 3 4 6 6 6 5 4 5 6 10 13 14 14 12 10 10 11 15 20 19 19 23 26 26 25 20 16 17 19 22 28 31 29 28 27 26 27 29 33 35 37 38 40 41 39 40 41 39 38 40 41 39 38 35 32 31 30 28 27 30 33 33 30 30 32 33 32 31 31 31 31 32 33 32 30 29 30 30 31 33 31 26 22
3 2 2 2 4 4 4 5 8 5 2 7 16 16 12 12 11 9 11 13 14 18 20 22 24 24 24 23 21 19 22 26 29 31 31 31 32 29 26 27 32 36 35 35 40 44 42 39 39 39 36 36 36 35 38 38 34 32 31 28 27 32 37 37 33 30 30 33 32 31 31 32 32 31 32 32 30 29 29 29 31 33 30 24 20 21
2 3 3 3 2 4 5 5 6 6 5 13 18 13 8 9 10 11 13 13 12 16 21 23 22 22 22 23 24 25 27 30 31 31 30 31 30 26 25 27 29 30 32 36 39 40 38 35 35 36 36 35 34 34 37 36 32 32 30 28 31 38 39 35 32 31 32 32 31 30 31 32 32 32 32 31 30 29 28 29 32 30 23 18 19 20
0 1 1 3 1 2 4 4 4 9 11 12 12 9 9 10 10 11 13 13 13 15 17 18 20 23 24 23 24 26 27 28 30 29 28 29 27 24 25 27 28 30 35 37 37 37 36 35 35 38 38 35 34 36 38 36 33 31 30 31 36 40 38 36 35 33 32 30 28 28 30 31 32 32 31 30 30 28 26 29 30 24 17 16 18 17
2 4 3 3 2 2 4 8 9 11 11 10 9 11 14 13 11 12 14 15 15 14 13 15 21 26 26 24 24 25 24 25 28 28 26 27 27 26 27 29 30 33 36 38 40 39 38 36 37 38 36 34 37 40 40 36 33 30 31 35 39 40 39 37 35 32 31 28 26 27 30 31 31 31 31 30 29 26 26 28 26 18 14 15 15 13
4 3 3 2 4 5 7 9 9 10 11 13 13 13 14 13 11 12 13 13 14 13 13 15 20 24 26 25 24 23 22 24 27 27 26 28 28 25 25 28 32 37 38 39 41 41 39 38 38 36 34 37 42 41 38 37 35 32 33 39 42 41 39 36 33 31 29 26 25 27 29 29 28 29 29 28 28 26 26 27 22 15 14 14 12 11
3 2 1 1 4 7 7 8 10 12 13 15 15 12 13 13 11 11 12 13 14 15 15 16 18 21 24 25 25 25 26 26 26 26 26 27 25 23 22 25 32 38 40 41 42 41 38 38 37 34 35 39 42 40 38 40 38 34 34 41 44 42 40 37 33 29 26 25 26 27 26 25 25 26 26 26 26 24 25 26 20 14 14 13 10 9
2 1 2 4 5 7 10 14 17 15 13 12 12 11 11 13 14 15 16 18 20 21 22 22 22 21 22 24 25 26 28 27 26 27 27 23 20 19 23 29 35 38 41 43 42 37 36 36 35 35 36 38 39 39 40 41 39 36 37 42 42 41 40 38 33 29 27 26 26 25 24 23 24 24 24 24 24 23 24 23 18 14 14 13 10 9
2 1 3 7 7 7 10 14 19 20 16 14 16 16 15 15 17 19 20 21 22 21 22 26 30 30 29 28 26 25 27 27 25 27 27 20 16 21 29 36 39 40 42 43 38 34 35 36 35 35 38 38 38 39 39 40 38 38 40 41 41 40 39 36 33 31 28 25 23 23 22 22 22 23 23 23 23 23 23 19 14 14 14 13 11 10
3 5 5 7 7 7 9 13 16 16 15 15 18 19 18 18 19 19 20 20 20 20 22 25 31 35 36 35 31 26 23 24 27 29 24 17 19 28 36 39 40 41 42 40 36 35 37 35 35 37 39 39 39 39 38 38 37 38 41 42 41 40 38 35 31 29 26 24 23 22 22 21 21 22 23 22 22 23 21 16 13 15 13 11 10 10
4 6 7 7 7 10 13 13 11 11 12 15 17 17 18 21 19 17 20 21 20 22 25 25 25 27 29 33 36 31 23 25 33 32 21 19 28 37 38 38 39 40 40 37 35 36 37 35 37 39 38 38 39 38 37 37 37 38 42 44 44 42 41 38 31 26 24 25 24 23 23 21 20 21 22 21 21 21 18 14 14 16 13 8 8 9
Wind_Direction
59 59 38 359 305 302 289 242 214 234 212 210 213 236 266 274 287 286 276 289 358 344 294 335 317 293 291 292 289 303 334 342 327 338 335 336 359 359 4 6 3 9 6 13 24 29 30 31 31 30 29 27 26 24 22 22 20 19 18 17 18 16 11 356 334 316 301 286 275 267 264 266 268 266 265 265 264 263 262 261 258 256 256 255 253 252
55 63 12 297 263 267 292 279 225 168 128 130 182 273 295 260 274 294 295 296 15 27 284 352 339 303 295 291 287 306 330 316 312 326 323 333 349 351 0 1 357 353 358 18 26 27 28 29 28 28 27 25 23 21 20 20 18 18 18 17 16 17 19 14 357 334 316 303 290 281 279 280 280 277 274 274 274 273 270 266 264 262 260 258 256 253
42 45 326 300 262 185 63 37 43 97 112 73 47 316 320 303 286 301 299 296 12 48 280 333 340 302 300 294 287 295 288 283 294 294 304 336 351 355 3 3 3 6 11 24 26 25 27 27 27 26 24 22 20 18 17 16 15 15 15 14 13 14 17 17 14 3 343 323 307 297 292 290 289 288 288 288 287 285 282 279 274 270 266 263 260 256
53 5 323 341 26 84 64 17 33 45 62 58 352 8 321 318 344 311 315 332 329 273 265 305 309 295 311 319 303 298 295 313 331 342 352 14 12 5 15 19 19 20 22 26 26 24 25 24 25 23 19 18 16 15 13 12 11 10 9 10 10 11 12 14 14 12 6 353 335 319 307 300 296 294 295 293 293 293 291 289 284 280 276 270 264 259
101 283 307 53 28 55 57 3 35 33 360 313 239 337 310 305 282 249 286 320 327 4 308 325 327 306 334 353 322 308 359 10 9 16 21 27 25 21 28 29 28 30 29 28 25 21 21 21 20 18 16 14 13 12 9 7 6 4 3 4 5 7 9 10 10 9 8 5 358 347 334 324 315 309 305 300 299 300 297 294 292 291 286 277 269 263
46 289 342 45 18 38 57 20 29 39 356 325 255 231 268 293 285 269 294 323 358 3 330 18 16 302 316 345 310 307 10 23 26 31 29 25 26 27 28 25 24 27 26 26 24 19 18 17 14 14 13 11 9 7 4 2 1 360 358 358 360 1 3 4 5 5 4 3 1 356 346 335 323 314 310 306 303 302 300 298 298 296 290 281 274 268
9 343 48 67 37 27 38 30 3 96 35 346 272 204 252 301 298 296 326 355 20 314 301 56 83 282 314 337 318 332 28 29 27 32 31 26 26 25 22 19 19 19 18 17 17 15 14 11 9 9 9 8 5 2 0 359 358 356 354 354 355 356 357 359 360 1 1 360 357 353 346 335 322 310 308 311 308 304 302 301 300 298 293 285 278 272
343 358 23 38 42 30 23 1 286 137 55 316 239 23 320 315 298 270 86 90 255 289 319 20 97 251 298 306 336 5 42 36 25 24 22 22 23 20 19 16 14 13 12 11 8 8 7 5 4 3 2 2 0 358 358 357 355 353 351 350 350 350 352 353 354 356 356 356 353 349 344 336 328 316 312 315 314 310 308 304 303 302 297 289 280 274
8 10 4 4 20 25 2 318 265 148 70 271 273 345 319 297 265 166 118 124 279 15 330 322 34 307 280 288 357 17 42 31 19 15 7 12 16 15 15 9 9 8 5 7 3 359 358 357 356 356 356 357 358 358 356 354 352 349 347 346 345 346 347 347 348 350 351 351 349 346 343 336 331 326 321 319 316 315 314 309 307 307 302 295 285 276
325 32 211 109 41 359 303 290 227 150 251 283 302 338 30 85 66 92 93 98 43 25 295 280 348 18 287 314 353 12 40 14 356 358 350 359 8 10 11 4 3 1 358 0 356 352 350 349 349 350 353 355 355 355 353 351 350 347 345 343 342 342 343 342 343 343 344 345 344 343 341 336 332 330 327 323 320 319 317 312 311 311 308 303 293 283
300 263 202 118 64 278 289 301 192 176 259 316 344 339 14 44 41 55 55 85 54 351 274 252 259 68 290 312 2 7 20 314 305 335 342 356 5 5 6 1 358 357 354 351 349 348 346 345 345 347 350 352 352 351 350 349 347 344 341 339 338 338 339 339 339 338 338 338 339 338 336 334 331 330 327 324 321 320 319 315 313 312 311 308 302 293
1 11 324 287 289 327 338 326 326 221 288 354 14 347 354 356 8 22 355 35 54 301 272 244 221 116 250 243 132 164 257 255 272 346 355 360 3 1 359 357 356 353 350 348 346 347 346 344 344 344 345 348 348 349 348 345 343 340 337 335 333 333 335 335 335 334 333 332 332 332 330 330 329 327 325 321 318 318 318 315 314 313 311 309 306 299
3 316 309 313 326 42 4 340 346 353 359 16 19 16 19 354 355 2 335 359 232 267 266 216 273 268 227 201 157 176 217 249 280 351 356 357 357 357 357 353 352 349 347 348 345 344 344 342 339 336 338 343 345 344 342 340 338 335 333 331 329 327 329 330 330 330 329 328 327 326 325 324 324 324 321 318 316 316 315 313 313 312 310 309 306 301
337 313 340 358 338 46 57 25 343 329 360 10 10 33 39 23 357 331 305 323 297 279 273 159 291 282 260 153 166 175 186 209 303 348 344 353 353 352 354 351 350 350 348 347 344 342 341 338 333 329 331 337 339 338 336 334 333 333 331 328 324 322 323 324 324 325 325 324 323 322 320 318 318 318 317 315 314 315 314 311 310 309 309 307 304 302
357 324 341 9 331 0 49 58 259 251 357 341 199 106 72 85 18 282 261 285 299 297 302 329 298 257 279 148 165 166 169 177 354 335 330 355 354 345 351 353 350 348 345 342 339 336 334 332 328 324 326 333 334 334 333 330 329 330 329 325 321 317 318 319 320 320 320 320 320 318 316 314 313 312 312 312 312 313 312 310 308 307 308 306 304 303
29 278 275 297 277 7 25 289 182 103 12 281 158 83 23 224 172 210 230 229 271 304 301 301 265 217 333 66 165 166 178 161 357 342 347 359 357 352 354 353 348 344 340 336 333 330 329 329 325 322 325 332 334 333 331 327 327 328 327 324 318 314 314 315 315 316 316 316 315 314 313 311 310 309 308 308 309 310 310 309 306 306 307 307 306 306
32 288 298 338 322 138 122 270 299 59 341 325 43 359 278 193 146 168 279 275 17 303 277 296 289 276 38 290 225 234 333 353 0 358 358 357 357 358 355 351 345 339 334 329 325 322 324 326 322 320 326 333 334 332 327 323 324 327 325 322 318 314 313 313 314 314 313 313 311 310 309 308 307 306 305 304 305 307 308 306 305 306 307 309 310 309
94 297 310 357 326 295 179 232 332 30 86 74 11 292 260 106 103 114 280 329 357 277 269 316 291 288 299 270 314 2 354 357 358 356 357 356 356 354 347 343 338 332 327 321 316 314 321 323 319 318 329 334 333 328 322 320 321 325 324 321 318 315 314 314 313 313 312 311 310 308 307 306 304 304 303 302 302 303 304 303 303 304 305 308 310 309
107 308 298 289 292 297 323 61 349 327 15 77 265 265 55 17 312 15 348 310 318 284 283 300 284 286 278 255 349 2 353 355 352 352 356 353 350 344 336 334 330 328 326 320 318 317 323 321 313 314 328 333 332 326 319 317 318 323 323 321 318 314 312 312 312 312 311 310 309 307 306 304 303 303 302 300 300 299 299 299 300 300 300 304 307 307
113 83 290 276 284 309 356 34 344 321 336 8 7 341 28 163 225 296 316 246 288 285 290 300 291 297 248 195 351 341 337 351 345 345 351 342 334 328 326 329 327 327 324 318 319 321 323 316 304 309 329 332 330 323 317 313 315 321 321 319 316 313 312 312 312 312 311 310 309 306 305 304 303 303 301 300 298 295 294 294 295 295 296 299 302 303
6 97 267 291 320 352 354 331 312 314 321 342 7 358 342 329 241 301 290 125 23 279 289 299 291 292 224 159 205 248 315 346 340 337 340 333 328 324 323 323 320 319 315 312 316 319 318 311 302 312 329 329 325 320 314 309 311 317 317 314 311 310 310 311 312 312 310 308 308 306 305 304 303 303 302 301 298 294 293 292 291 291 292 294 297 299
348 112 236 301 341 352 286 261 203 190 18 16 13 12 342 343 43 355 303 318 67 251 275 289 289 292 240 165 215 231 315 339 343 339 335 331 328 324 319 318 315 315 312 309 312 313 311 306 303 315 326 324 322 319 313 306 307 313 312 308 305 304 305 307 308 308 307 306 305 304 304 303 303 303 303 302 299 295 293 292 291 291 289 289 292 296
124 98 120 283 284 274 277 295 69 87 99 91 64 32 17 57 85 68 281 300 324 279 274 271 283 294 260 200 248 253 315 340 346 339 333 329 328 325 323 324 324 322 317 312 310 310 308 304 303 314 323 323 320 316 310 305 306 311 310 306 303 301 302 304 304 303 303 303 303 304 304 304 303 304 304 303 300 297 295 294 293 291 289 288 290 293
38 68 16 293 285 284 289 335 75 98 105 91 49 32 54 71 116 203 222 325 315 283 319 304 280 289 281 217 283 289 317 340 343 337 333 330 329 329 328 328 326 320 316 313 311 312 311 308 309 319 324 322 317 313 309 305 306 311 311 307 303 302 302 303 302 302 302 301 301 303 303 303 303 303 303 302 300 298 297 296 295 292 289 287 288 291
336 23 39 349 337 331 330 353 15 354 44 79 70 54 73 55 357 262 62 20 305 289 335 312 276 291 317 325 316 315 328 340 338 335 333 330 328 327 324 322 318 315 312 310 311 312 311 311 319 324 322 316 312 309 307 306 307 311 311 308 305 304 304 304 303 302 301 300 299 300 300 300 301 300 300 299 298 297 297 296 295 293 290 288 287 289
299 218 96 64 350 325 324 322 315 325 345 42 96 50 30 37 33 28 17 347 293 311 316 290 270 296 313 321 320 322 334 338 335 333 330 325 321 318 317 316 313 311 310 309 310 311 312 320 324 321 315 310 309 308 306 306 309 312 311 308 306 306 306 305 304 303 302 300 299 298 298 298 298 297 297 297 295 295 295 295 294 292 291 289 288 288
95 272 150 144 231 266 260 272 292 334 333 305 0 22 2 21 41 52 85 296 304 302 292 277 292 305 314 319 320 327 339 337 333 330 324 321 318 316 315 312 309 308 307 306 307 310 319 323 320 314 309 307 308 308 307 308 310 311 310 308 307 308 307 306 305 304 303 302 301 299 298 298 298 297 297 295 294 293 293 293 292 291 290 290 289 288
81 325 258 181 230 250 256 275 294 335 323 290 355 11 343 1 44 58 36 312 305 296 288 300 310 311 312 317 323 335 340 335 328 321 318 316 313 310 308 306 306 306 304 303 307 319 323 319 314 309 308 309 309 309 309 310 310 310 309 307 307 308 307 306 305 303 303 302 301 299 300 301 300 299 298 297 296 294 293 292 291 291 292 291 290 287
111 273 239 188 252 266 272 279 289 314 270 194 40 353 345 10 17 14 336 306 302 292 292 303 310 310 310 317 331 337 333 328 320 313 312 310 307 305 306 306 306 305 302 304 315 322 318 312 308 307 308 309 310 310 311 311 310 310 309 308 308 308 307 306 304 303 303 302 301 301 302 302 300 299 299 298 297 296 294 292 291 292 292 292 291 289
131 266 235 189 282 285 278 276 280 251 199 138 42 345 347 359 355 342 313 305 302 289 290 302 308 308 314 328 332 328 325 322 316 312 312 311 311 311 310 308 306 304 303 311 319 317 312 307 306 306 307 308 309 312 313 312 312 312 310 309 308 307 307 307 305 304 303 302 301 302 302 302 301 300 300 300 299 297 295 292 292 292 292 292 292 290
22 321 284 80 327 299 285 322 332 254 185 141 28 353 351 348 350 347 325 317 311 301 304 312 311 309 321 333 323 319 320 318 313 311 313 312 311 310 309 307 306 305 312 320 317 312 309 308 307 305 306 310 313 315 314 311 311 311 309 308 306 306 307 308 305 304 303 301 301 302 302 302 302 302 302 302 300 298 295 294 293 293 294 294 294 291
22 343 342 46 352 307 321 359 342 335 119 107 5 356 359 353 345 338 336 334 325 318 319 319 315 314 323 327 321 318 318 317 314 313 314 312 310 309 307 304 305 311 321 320 315 313 312 310 309 310 313 317 317 315 312 310 310 309 308 306 305 306 307 307 305 304 302 301 300 300 301 300 301 301 301 301 300 297 295 294 293 295 296 296 295 293
46 359 336 18 339 309 333 345 329 330 63 22 312 9 10 354 337 328 337 338 326 323 322 318 316 320 323 326 324 319 319 321 317 315 314 311 310 308 304 305 314 322 321 316 314 314 312 311 314 318 319 319 316 314 312 312 309 308 308 307 306 307 307 306 305 302 300 298 298 298 298 298 298 298 297 298 297 296 295 294 295 296 295 294 292 291
51 31 332 9 309 301 328 338 330 338 8 342 255 112 13 354 337 325 328 332 327 325 320 313 318 324 324 324 321 317 317 316 311 306 305 303 301 300 303 314 323 321 317 314 313 312 312 316 320 321 320 318 316 316 316 314 311 310 310 310 309 309 308 306 304 302 299 298 297 297 297 296 296 295 295 296 296 296 296 295 295 294 292 291 290 288
51 14 327 61 218 277 321 353 347 344 350 333 220 178 340 347 340 324 320 328 332 327 323 325 325 322 318 316 315 314 311 308 305 301 298 296 291 295 309 320 321 318 316 313 312 314 316 319 321 321 320 318 318 318 316 313 312 312 311 311 311 310 308 307 305 304 303 301 300 300 299 297 296 295 294 295 296 296 296 294 293 292 291 289 288 286
79 30 343 12 238 311 347 10 341 312 311 342 322 285 328 345 346 331 321 327 334 328 329 331 321 315 315 314 314 313 309 306 302 296 293 293 292 305 318 317 315 314 311 310 314 315 316 319 320 319 317 318 318 316 313 312 312 311 310 310 310 308 308 307 306 305 304 302 302 301 300 299 298 296 296 296 297 297 296 293 291 291 290 289 288 288
102 95 25 349 41 30 330 314 289 291 307 18 3 350 357 343 344 340 320 318 327 332 333 327 316 315 319 316 313 313 312 311 307 303 305 304 305 316 314 309 309 306 304 311 315 313 313 317 318 318 318 317 315 313 313 312 313 312 309 308 309 309 309 309 307 306 306 304 302 301 301 301 300 298 298 299 298 297 295 293 291 291 291 289 288 287
58 61 72 16 13 90 305 309 319 317 323 21 308 328 351 340 338 336 312 303 320 336 330 326 321 321 321 316 315 317 317 317 311 310 320 325 319 317 311 307 308 306 309 316 316 314 314 316 318 320 318 314 312 315 315 313 314 312 306 304 308 311 310 308 309 310 310 307 304 302 302 302 300 299 299 298 297 296 294 294 293 292 291 289 286 285
41 37 85 72 10 19 352 330 323 309 304 206 276 327 344 341 334 326 300 294 327 333 331 331 325 321 319 316 318 320 320 316 308 310 321 323 318 316 313 310 310 312 319 320 315 312 314 316 319 320 316 311 314 317 315 314 316 314 307 305 311 312 309 306 307 311 311 308 306 303 302 303 302 300 297 295 295 295 295 295 294 293 292 290 287 284
38 6 28 46 15 357 342 314 279 257 277 293 331 341 341 334 330 328 315 315 331 331 331 330 322 318 318 317 318 320 317 312 307 310 314 314 311 311 310 309 313 320 322 317 313 315 318 320 322 319 315 315 317 317 317 319 320 317 312 311 312 309 305 305 306 308 309 309 307 304 304 305 304 300 296 293 293 294 295 294 294 294 293 291 289 288
40 359 14 30 349 339 335 312 296 267 257 299 333 345 342 332 333 338 324 318 327 326 322 320 318 317 318 318 318 315 309 306 305 306 309 311 311 311 311 315 320 320 315 314 321 327 326 323 322 319 317 318 319 322 327 327 322 318 316 313 309 306 305 305 304 304 307 309 308 305 305 306 305 301 296 293 294 295 296 296 296 296 294 292 296 302
21 341 340 350 330 328 323 310 308 285 236 341 340 343 354 347 334 325 314 312 319 317 313 315 317 317 318 317 314 310 307 307 308 308 310 312 312 313 318 324 322 318 317 324 331 332 328 324 324 324 324 324 326 330 331 326 321 318 316 311 309 310 310 307 304 304 307 309 307 305 306 307 306 302 297 296 298 299 299 300 299 297 295 300 312 316
2 328 322 315 311 316 316 323 320 299 326 354 345 341 359 349 316 303 308 309 309 310 313 316 316 316 318 315 311 309 308 308 309 311 312 312 314 317 321 320 318 321 329 332 330 330 331 328 327 328 326 325 329 331 329 325 322 319 317 314 314 317 316 314 311 308 308 307 305 304 306 307 306 303 299 300 303 303 302 303 301 299 304 318 323 316
140 89 311 288 290 357 326 310 288 289 310 340 342 324 318 312 299 300 308 309 312 315 317 317 315 315 317 315 312 311 310 309 310 312 314 316 318 320 319 319 323 330 333 331 328 330 332 330 328 326 323 324 331 333 330 326 322 320 320 318 318 319 320 318 315 311 308 306 303 303 307 307 305 303 303 305 308 307 306 305 303 304 315 326 323 316
208 169 182 251 247 191 230 248 266 283 300 319 319 307 304 302 302 309 309 309 314 316 317 318 316 316 319 318 315 313 312 314 314 314 317 320 318 318 320 325 330 331 330 328 328 328 329 329 326 322 322 329 335 333 328 325 322 319 318 319 320 319 318 316 314 310 306 304 302 304 307 307 306 305 306 309 311 310 309 307 306 310 323 328 325 319
237 190 166 239 280 271 243 246 273 295 307 312 310 305 304 305 309 310 306 306 309 311 314 318 317 318 321 322 319 316 316 318 317 318 320 318 315 318 325 328 329 329 328 328 327 326 328 329 325 324 330 336 334 329 325 325 322 317 315 319 322 320 318 317 312 307 305 304 304 306 307 305 305 307 310 312 312 312 311 309 308 317 329 330 327 319
271 235 195 261 314 317 304 292 302 310 309 307 305 300 299 304 309 311 312 311 312 314 316 316 316 319 322 322 322 320 319 320 320 319 319 317 317 322 327 329 328 328 328 327 325 326 330 332 330 332 335 332 328 326 326 324 321 316 317 322 325 325 325 322 314 308 306 307 306 306 305 304 305 308 311 313 312 313 313 311 313 327 333 329 324 317
299 241 272 308 312 297 289 295 306 309 302 299 306 311 314 319 322 323 322 320 317 318 320 321 323 325 324 324 324 322 320 321 322 320 318 318 321 326 328 328 327 327 327 325 324 327 332 333 331 331 330 325 324 326 325 322 319 318 321 325 328 330 330 327 322 316 311 308 307 306 305 306 307 308 310 309 310 313 313 311 319 336 335 328 323 315
293 342 307 307 302 280 283 307 321 323 321 322 326 327 327 328 326 324 323 322 320 321 323 326 327 327 325 324 324 323 321 320 321 320 319 319 327 331 328 325 325 326 325 323 323 330 333 330 328 329 326 323 324 325 322 319 318 321 325 329 331 332 331 330 329 325 317 311 309 308 307 307 307 307 307 306 308 313 312 311 327 342 337 333 333 323
336 342 321 315 319 313 314 325 329 324 320 322 325 325 325 326 325 323 323 323 322 322 324 325 326 326 324 322 323 324 322 320 320 319 318 322 333 331 327 324 324 324 323 322 326 331 330 327 328 328 324 323 325 323 318 317 319 323 328 331 332 332 331 331 331 328 322 317 312 308 308 307 306 306 306 304 307 311 310 312 334 346 343 339 340 340
351 334 328 324 314 306 308 315 319 311 302 305 314 319 320 321 322 320 318 318 316 318 320 321 322 324 323 321 321 323 322 321 321 320 321 329 332 329 326 325 324 322 322 325 329 328 326 327 329 327 324 324 323 319 316 317 320 325 329 332 333 332 332 333 331 327 323 320 314 309 308 307 306 306 306 304 306 308 309 318 336 346 355 357 346 351